Kingstree, SC

9:15 AM EDT on September 26, 2017 (GMT -0400)
Williamsburg County

Weather History for KCKI - April, 2014

Change the Weather History Date:

Tuesday, April 8, 2014

  Actual Average Record
Temperature  
Mean Temperature 68 °F -  
Max Temperature 73 °F 73 °F 89 °F (2015)
Min Temperature 60 °F 43 °F 33 °F (2017)
Cooling Degree Days 2    
Growing Degree Days 18 (Base 50)    
Moisture  
Dew Point 56 °F    
Average Humidity 69    
Maximum Humidity 94    
Minimum Humidity 41    
Precipitation  
Precipitation 0.02 in - - ()
Sea Level Pressure  
Sea Level Pressure 29.67 in    
Wind  
Wind Speed 7 mph (SW)    
Max Wind Speed 14 mph    
Max Gust Speed 18 mph    
Visibility 10 miles    
Events Rain    
Averages and records for this station are not official NWS values.
T = Trace of Precipitation, MM = Missing Value Source: NWS Daily Summary

Daily Weather History Graph

Daily Weather History Graph

Search for Another Location

Airport or City:

Trip Planner

Search our weather history database for the weather conditions in past years. The results will help you decide how hot, cold, wet, or windy it might be!

Date:

Astronomy

Apr. 08, 2014 Rise Set
Actual Time 6:57 AM EDT 7:45 PM EDT
Civil Twilight 6:32 AM EDT 8:10 PM EDT
Nautical Twilight 6:02 AM EDT 8:40 PM EDT
Astronomical Twilight 5:31 AM EDT 9:11 PM EDT
Moon 1:53 PM EDT (4/8) 2:52 AM EDT (4/8)
Length of Visible Light 13h 38m
Length of Day
12h 47m
Waxing Gibbous, 62% of the Moon is Illuminated
Apr 8
Waxing Gibbous
Apr 15
Full
Apr 22
Last Quarter
Apr 29
New
May 6
First Quarter

Hourly Weather History & Observations

Time (EDT) Temp. Dew Point Humidity Pressure Visibility Wind Dir Wind Speed Gust Speed Precip Events Conditions
12:15 AM 64.4 °F 62.6 °F 94% 29.73 in 10.0 mi SSE 4.6 mph - N/A   Overcast
12:35 AM 66.2 °F 64.4 °F 94% 29.73 in 10.0 mi South 8.1 mph - N/A Rain Rain
12:55 AM 68.0 °F 64.4 °F 88% 29.72 in 10.0 mi SSE 9.2 mph - N/A   Mostly Cloudy
1:15 AM 68.0 °F 64.4 °F 88% 29.72 in 10.0 mi South 9.2 mph - N/A   Mostly Cloudy
1:35 AM 68.0 °F 64.4 °F 88% 29.72 in 10.0 mi South 9.2 mph - N/A   Overcast
1:55 AM 68.0 °F 64.4 °F 88% 29.72 in 10.0 mi SSE 6.9 mph - N/A Rain Light Rain
2:15 AM 68.0 °F 64.4 °F 88% 29.72 in 10.0 mi South 8.1 mph - 0.01 in   Light Drizzle
2:35 AM 68.0 °F 64.4 °F 88% 29.70 in 10.0 mi South 10.4 mph - 0.01 in Rain Light Rain
3:15 AM 68.0 °F 64.4 °F 88% 29.68 in 10.0 mi SSW 6.9 mph - N/A   Overcast
3:35 AM 68.0 °F 64.4 °F 88% 29.67 in 10.0 mi SSW 9.2 mph - N/A   Overcast
3:55 AM 68.0 °F 64.4 °F 88% 29.65 in 10.0 mi SW 12.7 mph 17.3 mph N/A   Overcast
4:15 AM 68.0 °F 64.4 °F 88% 29.66 in 10.0 mi SW 8.1 mph - N/A   Scattered Clouds
4:35 AM 68.0 °F 64.4 °F 88% 29.65 in 10.0 mi SSW 6.9 mph - N/A   Mostly Cloudy
5:35 AM 68.0 °F 64.4 °F 88% 29.64 in 10.0 mi South 4.6 mph - N/A Rain Light Rain
5:55 AM 68.0 °F 64.4 °F 88% 29.65 in 10.0 mi SW 5.8 mph - N/A Rain Light Rain
8:15 AM 68.0 °F 66.2 °F 94% 29.67 in 10.0 mi South 4.6 mph - 0.01 in Rain Light Rain
8:55 AM 68.0 °F 66.2 °F 94% 29.67 in 10.0 mi SSW 4.6 mph - 0.01 in   Mostly Cloudy
9:55 AM 68.0 °F 66.2 °F 94% 29.67 in 10.0 mi SSW 4.6 mph - N/A   Overcast
10:35 AM 68.0 °F 64.4 °F 88% 29.67 in 10.0 mi SSW 6.9 mph - N/A   Scattered Clouds
11:15 AM 68.0 °F 60.8 °F 78% 29.68 in 10.0 mi SW 9.2 mph - N/A   Clear
1:15 PM 68.0 °F 55.4 °F 64% 29.65 in 10.0 mi SW 8.1 mph - N/A   Clear
1:35 PM 69.8 °F 51.8 °F 53% 29.66 in 10.0 mi SW 6.9 mph - N/A   Clear
1:55 PM 69.8 °F 50.0 °F 49% 29.65 in 10.0 mi WSW 10.4 mph - N/A   Clear
2:15 PM 71.6 °F 50.0 °F 46% 29.63 in 10.0 mi SW 8.1 mph 16.1 mph N/A   Clear
2:35 PM 71.6 °F 50.0 °F 46% 29.63 in 10.0 mi SW 11.5 mph 17.3 mph N/A   Clear
2:55 PM 71.6 °F 51.8 °F 50% 29.63 in 10.0 mi SW 11.5 mph - N/A   Clear
3:15 PM 71.6 °F 50.0 °F 46% 29.63 in 10.0 mi WSW 13.8 mph - N/A   Clear
3:35 PM 71.6 °F 50.0 °F 46% 29.62 in 10.0 mi WSW 10.4 mph - N/A   Clear
3:55 PM 73.4 °F 48.2 °F 41% 29.62 in 10.0 mi WSW 12.7 mph 18.4 mph N/A   Clear
4:15 PM 71.6 °F 46.4 °F 41% 29.62 in 10.0 mi SW 12.7 mph 17.3 mph N/A   Clear
4:35 PM 71.6 °F 46.4 °F 41% 29.62 in 10.0 mi WSW 11.5 mph 16.1 mph N/A   Clear
4:55 PM 71.6 °F 46.4 °F 41% 29.62 in 10.0 mi SW 9.2 mph 17.3 mph N/A   Clear
6:15 PM 69.8 °F 50.0 °F 49% 29.62 in 10.0 mi SW 5.8 mph - N/A   Clear
7:15 PM 69.8 °F 50.0 °F 49% 29.64 in 10.0 mi Calm Calm - N/A   Clear
7:35 PM 68.0 °F 50.0 °F 52% 29.64 in 10.0 mi Calm Calm - N/A   Clear
7:55 PM 68.0 °F 51.8 °F 56% 29.65 in 10.0 mi West 3.5 mph - N/A   Clear
8:15 PM 66.2 °F 50.0 °F 56% 29.65 in 10.0 mi WNW 5.8 mph - N/A   Clear
8:35 PM 64.4 °F 50.0 °F 59% 29.66 in 10.0 mi WNW 4.6 mph - N/A   Clear
8:55 PM 64.4 °F 50.0 °F 59% 29.66 in 10.0 mi WNW 4.6 mph - N/A   Clear
9:15 PM 62.6 °F 51.8 °F 68% 29.67 in 10.0 mi West 4.6 mph - N/A   Clear
9:35 PM 62.6 °F 51.8 °F 68% 29.67 in 10.0 mi West 3.5 mph - N/A   Clear
9:55 PM 62.6 °F 51.8 °F 68% 29.67 in 10.0 mi WNW 3.5 mph - N/A   Clear
10:15 PM 62.6 °F 51.8 °F 68% 29.68 in 10.0 mi West 3.5 mph - N/A   Clear
10:35 PM 62.6 °F 50.0 °F 63% 29.68 in 10.0 mi WSW 3.5 mph - N/A   Clear
10:55 PM 62.6 °F 50.0 °F 63% 29.68 in 10.0 mi West 3.5 mph - N/A   Clear
11:15 PM 62.6 °F 50.0 °F 63% 29.69 in 10.0 mi West 4.6 mph - N/A   Clear
11:35 PM 62.6 °F 50.0 °F 63% 29.69 in 10.0 mi West 5.8 mph - N/A   Clear
11:55 PM 60.8 °F 48.2 °F 63% 29.69 in 10.0 mi WSW 3.5 mph - N/A   Scattered Clouds